Tamkin Huseynov

Recruteur en chef - Qarabag
20 Janv 2028
Jeudi
Processus

Personnalité

Adaptabilité (6) Ambition (15) Controverse (7) Loyauté (17) Pression (9) Professionnalisme (6) Sportivité (9) Tempérament (14)

Profil

Style d'entraînement Démocratique
Diplôme Continental C
Détermination 9
Gestion des joueurs 5
Motivation 11
Discipline 9
Satisfaction professionnelle
100%
Fatigue
0%
Rôle Recruteur en chef
Salaire 65.8K p/s
Contrat 14.03.2030

Performance

Comportement Bon
Efficacité de l'entraînement
26%
Développement des joueurs
55%
Prévention des blessures
25%
Mise en place tactique
30%

Événements récents

A recommandé une cible de transfert maintenant
A recommandé une cible de transfert maintenant
A recommandé une cible de transfert maintenant
A recommandé une cible de transfert maintenant
A recommandé une cible de transfert maintenant
A recommandé une cible de transfert maintenant
A présenté un dossier au conseil maintenant
En formation continue maintenant

Suivi en cours

307
Joueur Club Statut Capacité Confiance Observé Dernière observation Dernier vote
Germán Berterame Vélez Actif 132 / 122 40% 39 18.01.2028 -
M'Bala Nzola Cagliari Actif 128 / 129 40% 12 18.01.2028 -
Hany Mukhtar Spezia Actif 136 / 143 40% 1 18.01.2028 -
Ryan Raposo Los Angeles Football Club Actif 110 / 115 40% 1 15.01.2028 -
Francisco Álvarez Argentinos Juniors Actif 133 / 131 40% 1 15.01.2028 -
Braian Aranda Agropecuario Argentino Actif 117 / 110 40% 1 15.01.2028 -
Leandro Lozano Boca Juniors Actif 118 / 134 40% 1 14.01.2028 -
Enzo Silcan Almagro Actif 106 / 126 40% 1 14.01.2028 -
Fernando Bersano Madryn Actif 120 / 118 40% 1 14.01.2028 -
Teruki Hara Nagoya Grampus Actif 113 / 133 40% 2 13.01.2028 -
David Sotelo Persib Actif 116 / 122 40% 1 13.01.2028 -
Martín García Atlanta Actif 108 / 117 40% 1 13.01.2028 -
Sasha Marcich Lanús Actif 114 / 126 40% 2 12.01.2028 -
Gonzalo Abrego Godoy Cruz Actif 127 / 119 40% 1 12.01.2028 -
César Ibáñez Huracán Actif 135 / 115 40% 1 11.01.2028 -
Daniel Herrera San Lorenzo Actif 123 / 136 40% 1 11.01.2028 -
Kamran Ramazanov Inter Perdu 124 / 118 69% 1 03.01.2028 -
Lautaro Amadé Defensa y Justicia Actif 122 / 126 40% 6 01.01.2028 -
Rüstəm Əhmədzadə Sumgayit Rapport prêt 119 / 109 69% 1 01.01.2028 -
Egil Selvik Watford Actif 133 / 128 40% 1 01.01.2028 -
Max O'Leary West Bromwich Albion Actif 131 / 130 40% 1 01.01.2028 -
Jhonatan Candia Barracas Central Actif 115 / 115 40% 2 30.12.2027 -
Duvan Rangel La Equidad Actif 138 / 133 40% 2 30.12.2027 -
Yuma Suzuki Urawa Reds Actif 140 / 125 40% 33 30.12.2027 -
Nicolás Fernández Sassuolo Actif 132 / 123 40% 20 30.12.2027 -
Mattia Bortolussi Padova Actif 133 / 119 40% 14 30.12.2027 -
Tomás O'Connor Gimnasia y Esgrima Actif 125 / 128 40% 1 30.12.2027 -
Lautaro Díaz Cruzeiro Actif 130 / 130 40% 3 28.12.2027 -
Carlos Fernández Oviedo Actif 126 / 124 40% 25 27.12.2027 -
Saldanha Al Wasl Actif 135 / 129 40% 8 27.12.2027 -
Roger Brugué Levante Actif 129 / 130 40% 16 25.12.2027 -
Jerónimo Pourtau Talleres Actif 117 / 121 40% 2 19.12.2027 -
Balázs Tóth Blackburn Rovers Actif 137 / 131 40% 1 19.12.2027 -
Fernando Martínez Central Córdoba SdE Actif 130 / 121 40% 1 16.12.2027 -
Facundo Ardiles Estudiantes Actif 102 / 108 40% 1 16.12.2027 -
Franco Malagueño Colegiales Actif 101 / 123 40% 1 16.12.2027 -
Matías Borgogno San Martín SJ Perdu 134 / 135 40% 1 14.12.2027 -
Gaëtan Poussin Red Star Actif 128 / 136 40% 1 14.12.2027 -
Juan Brunetta FC Copenhagen Actif 136 / 130 40% 13 13.12.2027 -
Evgeny Latyshonok Nizhniy Novgorod Actif 140 / 124 40% 2 12.12.2027 -
Iván Arboleda Sarmiento Actif 133 / 110 40% 2 12.12.2027 -
Lucas Acosta Aldosivi Actif 113 / 110 40% 5 11.12.2027 -
Justin Bijlow Genoa Actif 152 / 145 40% 2 11.12.2027 -
Abduvohid Ne'matov Nasaf Actif 137 / 132 40% 4 07.12.2027 -
Pavel Bucha FC Cincinnati Actif 141 / 117 40% 2 07.12.2027 -
Louis Munteanu DC United Actif 126 / 129 40% 2 07.12.2027 -
Gastón Togni Defensa y Justicia Actif 123 / 139 40% 2 07.12.2027 -
Vladimir Nazarov Pakhtakor Actif 127 / 130 40% 1 07.12.2027 -
Denzel Jubitana Neftchi Actif 129 / 110 40% 1 07.12.2027 -
Emanuel Coronel Rosario Central Actif 118 / 128 40% 1 06.12.2027 -
César Pérez Defensa y Justicia Actif 118 / 117 40% 1 06.12.2027 -
Gaëtan Coucke Sampdoria Actif 126 / 129 40% 2 30.11.2027 -
Michele Cerofolini Bari Actif 128 / 137 40% 1 30.11.2027 -
Tomás Marchiori Vélez Actif 138 / 131 40% 3 28.11.2027 -
Didier Mercier Chamois Niortais Actif 121 / 134 40% 1 28.11.2027 -
Edwuin Cetré Estudiantes Actif 121 / 123 40% 1 23.11.2027 -
Asier Villalibre Valencia Actif 123 / 126 40% 1 21.11.2027 -
Sol Brynn Krasnodar Actif 122 / 138 40% 6 19.11.2027 -
Simone Scuffet Pisa Actif 140 / 131 40% 3 16.11.2027 -
Renzo Tesuri Atlético Tucumán Actif 121 / 136 40% 1 16.11.2027 -
Tomás Conechny Racing Club Actif 121 / 140 40% 1 16.11.2027 -
Elías Báez Atlanta United FC Actif 118 / 136 40% 1 16.11.2027 -
Cristopher Fiermarin Defensa y Justicia Actif 128 / 114 40% 4 10.11.2027 -
José Devecchi San Lorenzo Actif 118 / 122 40% 3 09.11.2027 -
Franco Petroli Estudiantes Actif 119 / 117 40% 3 09.11.2027 -
Matías Zaracho Racing Club Actif 120 / 137 40% 1 06.11.2027 -
Tomáš Bobček Frosinone Actif 122 / 126 40% 4 30.10.2027 -
Guillermo Enrique Huracán Actif 117 / 108 40% 2 27.10.2027 -
Alexander Díaz Deportivo Riestra Actif 127 / 129 40% 1 27.10.2027 -
Stefano Moreyra Independiente Rivadavia Actif 125 / 110 40% 1 27.10.2027 -
Facundo Farías Estudiantes Actif 121 / 121 40% 5 24.10.2027 -
Matías Tagliamonte Racing Club Actif 111 / 113 40% 2 23.10.2027 -
Jonathan Klinsmann Cesena Actif 134 / 135 40% 2 23.10.2027 -
Lucas Chaves Argentinos Juniors Actif 129 / 126 40% 1 23.10.2027 -
Emmanuel Gómez Riga Alvarado Actif 128 / 111 40% 2 17.10.2027 -
Wladimiro Falcone Lecce Actif 148 / 143 40% 1 17.10.2027 -
Iván Villar Villarreal Actif 130 / 136 40% 1 16.10.2027 -
Alan Sosa Tigre Actif 119 / 123 40% 1 16.10.2027 -
Mateusz Bogusz Houston Dynamo Actif 117 / 144 40% 2 08.10.2027 -
Maksim Samorodov Akhmat Grozny Actif 117 / 111 40% 3 06.10.2027 -
Luciano Herrera Newell's Old Boys Actif 118 / 138 40% 1 04.10.2027 -
Yorbe Vertessen Red Bull Salzburg Actif 131 / 129 40% 9 02.10.2027 -
Daniel Sappa San Miguel Actif 119 / 112 40% 1 02.10.2027 -
Gianmarco Vannucchi Benevento Actif 120 / 127 40% 1 28.09.2027 -
Ignacio Chicco Aldosivi Actif 112 / 132 40% 1 28.09.2027 -
Andrea Fulignati Cremonese Actif 133 / 124 40% 1 28.09.2027 -
Afimico Pululu Rosario Central Actif 119 / 115 40% 3 25.09.2027 -
Adam Buksa Udinese Actif 123 / 120 40% 4 25.09.2027 -
David Ayala Inter Miami CF Actif 121 / 117 40% 1 23.09.2027 -
Hojiakbar Alijonov Pakhtakor Actif 127 / 132 40% 1 23.09.2027 -
Matías Canedo Rampla Juniors Actif 89 / 86 40% 2 21.09.2027 -
Zahir Ibarra Defensa y Justicia Actif 92 / 105 40% 1 21.09.2027 -
Ángel Aguayo Sol de America Actif 93 / 113 40% 1 21.09.2027 -
Marek Rodák Malmo FF Actif 137 / 129 40% 1 20.09.2027 -
Lucas Souto Defensa y Justicia Actif 128 / 135 40% 1 12.09.2027 -
Gustavo Del Prete San Lorenzo Actif 120 / 119 40% 1 12.09.2027 -
Luciano Gondou CSKA Moscow Actif 137 / 135 40% 4 09.09.2027 -
Maxim Borisko CSKA Moscow Actif 124 / 122 40% 2 07.09.2027 -
Juan Bisanz Huracán Actif 136 / 131 40% 1 07.09.2027 -
Antony Alonso Deportivo Riestra Actif 118 / 121 40% 1 07.09.2027 -
Diego Vargas San Marcos de Arica Actif 82 / 111 40% 1 05.09.2027 -
Alexis Ríos Leones Actif 94 / 77 40% 1 05.09.2027 -
Ulises Giménez River Plate Actif 108 / 130 40% 2 30.08.2027 -
Ľubomír Tupta Neftchi Actif 122 / 115 69% 1 30.08.2027 Approuver
Itumeleng Erasmus CFR Cluj Actif 119 / 126 40% 1 30.08.2027 -
Elkin Rivero Atletico Nacional Actif 95 / 123 40% 1 30.08.2027 -
Samuel Posada Leones Actif 77 / 87 40% 1 30.08.2027 -
Lucas Camejo River Plate Actif 79 / 90 40% 2 29.08.2027 -
Julián Bazán Philadelphia Union Actif 101 / 128 40% 1 29.08.2027 -
Lucas Silva River Plate Actif 95 / 110 40% 2 28.08.2027 -
Daniel Gomez Valledupar Actif 90 / 92 40% 2 28.08.2027 -
Keimer Sandoval Deportivo Cali Actif 111 / 119 40% 1 28.08.2027 -
Teo Rodríguez Pagano River Plate Actif 111 / 134 40% 1 26.08.2027 -
Maximiliano Salas River Plate Actif 119 / 128 40% 1 22.08.2027 -
Emiliano Bértoli Patronato Actif 99 / 93 40% 2 21.08.2027 -
Ollie Watkins Estudiantes Actif 144 / 137 40% 4 21.08.2027 -
Jofrank Istifanus Nasarawa United Actif 94 / 98 40% 2 21.08.2027 -
Sebastian Aceves Atletico Goianiense Actif 88 / 88 40% 1 18.08.2027 -
Erik Botheim Talleres Actif 118 / 113 40% 4 16.08.2027 -
Dániel Gazdag Wolverhampton Actif 124 / 135 40% 10 16.08.2027 -
Uriel Antuna Zaragoza Actif 132 / 135 40% 1 16.08.2027 -
Alejandro Almaraz Nueva Chicago Actif 112 / 129 40% 1 15.08.2027 -
José Correa Deportivo Tachira Actif 95 / 98 40% 1 15.08.2027 -
Sebastián Driussi River Plate Actif 118 / 116 40% 10 12.08.2027 -
Adrián Spörle Belgrano Actif 118 / 123 40% 1 09.08.2027 -
Gonzalo Ríos Independiente Rivadavia Actif 114 / 107 40% 1 06.08.2027 -
Francisco González Metilli Belgrano Actif 135 / 135 40% 1 06.08.2027 -
Tomás Adoryan Banfield Actif 110 / 132 40% 1 04.08.2027 -
Juan Infante Atlético Tucumán Actif 124 / 118 40% 1 04.08.2027 -
Iñaki Larthirigoyen San Telmo Actif 129 / 115 40% 1 03.08.2027 -
Facundo Altamira Godoy Cruz Actif 117 / 130 40% 1 03.08.2027 -
Mateo Bajamich Atlético Tucumán Actif 114 / 119 40% 1 31.07.2027 -
Bruno Barticciotto Talleres Actif 119 / 141 40% 5 28.07.2027 -
Jadsom Al Wahda Actif 127 / 143 40% 1 28.07.2027 -
Hugo Al Wasl Actif 125 / 122 40% 1 26.07.2027 -
Alejo Dramisino Atlanta Actif 119 / 122 40% 1 26.07.2027 -
Milton Giménez Boca Juniors Actif 118 / 128 40% 2 24.07.2027 -
Charlie Gray Grimsby Town Actif 101 / 90 40% 4 21.07.2027 -
Rayhan Momade Sporting CP Actif 99 / 106 40% 2 21.07.2027 -
Everton Bala Levski Actif 119 / 139 40% 2 21.07.2027 -
Leandro Martins Benfica Actif 96 / 92 40% 5 20.07.2027 -
Kai Andrews Coventry City Actif 113 / 116 40% 2 20.07.2027 -
Álvaro Navoni Tigre Actif 91 / 92 40% 1 20.07.2027 -
Álvaro Fernández Mallorca Actif 136 / 141 40% 1 18.07.2027 -
Ilja Pomazun Spartak Moscow Actif 131 / 120 40% 1 16.07.2027 -
Evgeny Staver Rubin Actif 126 / 109 40% 8 13.07.2027 -
Lucas Mbamba Westerlo Actif 92 / 93 40% 5 13.07.2027 -
Darryl Bakola Padova Actif 107 / 132 40% 4 13.07.2027 -
Miguel Vargas Universitario Actif 107 / 114 40% 1 13.07.2027 -
Christián Herc Gabala Actif 119 / 107 69% 1 12.07.2027 Approuver
Santiago Longo Belgrano Actif 134 / 129 40% 2 11.07.2027 -
Miguel Loureiro Deportivo La Coruña Actif 127 / 118 40% 1 11.07.2027 -
Alexandr Koryakin Krasnodar Actif 122 / 105 40% 2 09.07.2027 -
Nicolás Sumavil Platense Actif 110 / 103 40% 3 09.07.2027 -
Luis Chávez Dinamo Moscow Actif 136 / 120 40% 3 04.07.2027 -
Milson Al Jazira Actif 129 / 126 40% 1 04.07.2027 -
Santiago Ascacíbar Boca Juniors Actif 132 / 135 40% 1 04.07.2027 -
Darnell Furlong Ipswich Town Actif 122 / 120 40% 2 03.07.2027 -
Vitinha Genoa Actif 138 / 136 40% 1 02.07.2027 -
Valentin Rosier Osasuna Actif 126 / 122 40% 1 02.07.2027 -
Emiliano González Almagro Actif 112 / 112 40% 1 01.07.2027 -
Ryan Kent Brighton Actif 126 / 137 40% 1 01.07.2027 -
Matías Galarza Central Córdoba SdE Actif 135 / 131 40% 1 01.07.2027 -
Igor Leschuk Dinamo Moscow Actif 125 / 131 40% 1 27.06.2027 -
Tomás Durso Atlético Tucumán Actif 134 / 137 40% 1 27.06.2027 -
Weibmar Asprilla Independiente Medellin Actif 114 / 110 40% 1 26.06.2027 -
Calvin Raatsie Excelsior Actif 115 / 123 40% 1 26.06.2027 -
Jakub Kałuziński Basaksehir Actif 120 / 121 40% 1 26.06.2027 -
Santiago González Tigre Actif 128 / 139 40% 1 26.06.2027 -
Alex Luna Instituto Actif 128 / 130 40% 1 25.06.2027 -
Eric Meza Estudiantes Actif 119 / 137 40% 1 25.06.2027 -
Douglas Augusto Krasnodar Actif 140 / 134 40% 2 22.06.2027 -
Nicolás Tripichio San Lorenzo Actif 133 / 125 40% 1 21.06.2027 -
Daniil Fomin Dinamo Moscow Actif 132 / 122 40% 1 21.06.2027 -
Anton Miranchuk Dinamo Moscow Actif 116 / 140 40% 1 19.06.2027 -
Malcom Braida Boca Juniors Actif 125 / 137 40% 1 19.06.2027 -
Kevin Pina Krasnodar Actif 132 / 141 40% 1 19.06.2027 -
Roberto Ramírez Godoy Cruz Actif 128 / 106 40% 1 19.06.2027 -
Serginho Al Wasl Actif 140 / 134 40% 1 16.06.2027 -
Bədavi Hüseynov Gabala Actif 104 / 97 69% 1 14.06.2027 Approuver
Eduardo Felicíssimo Sporting CP Actif 115 / 122 40% 3 13.06.2027 -
Chibueze Oputa Rangers International Actif 76 / 86 40% 1 13.06.2027 -
Dmitry Pestryakov Dinamo Moscow Actif 117 / 120 40% 2 11.06.2027 -
Michal Rosiak Twente Actif 91 / 92 40% 2 10.06.2027 -
Daniel Padilla Zamora Actif 100 / 90 40% 1 10.06.2027 -
Martim Cunha Porto Actif 106 / 102 40% 4 09.06.2027 -
Thijs Kraaijeveld Feyenoord Actif 108 / 127 40% 2 09.06.2027 -
Latrell Aken Groningen Actif 105 / 121 40% 2 07.06.2027 -
Zaïd BafdilI Sporting CP Actif 92 / 97 40% 5 05.06.2027 -
Falaye Sacko Neftchi Actif 118 / 122 69% 1 02.06.2027 Approuver
Issa Djibrilla Zira Actif 107 / 121 69% 1 01.06.2027 Approuver
Timur Kraikov Sokol Actif 99 / 82 40% 2 28.05.2027 -
Arthur Augusto Semen Padang Actif 106 / 93 40% 1 28.05.2027 -
Tenton Yenne Baltika Actif 117 / 98 40% 1 28.05.2027 -
Georgy Melkadze Akhmat Grozny Actif 105 / 119 40% 4 25.05.2027 -
Edarlyn Reyes Arsenal Tula Actif 122 / 122 40% 1 25.05.2027 -
Arthur Gomes Dinamo Moscow Actif 130 / 126 40% 2 24.05.2027 -
Martin Sekulić Ural Actif 115 / 124 40% 1 24.05.2027 -
Eddy Ozobic Inter Perdu 104 / 120 40% 2 22.05.2027 -
Jeimes Sumgayit Actif 99 / 98 40% 5 21.05.2027 -
Santiago Silva CFR Cluj Actif 127 / 110 40% 10 19.05.2027 -
Brian Opondo Kakamega Homeboyz Actif 97 / 77 40% 1 19.05.2027 -
Nicolás Azambuja Cádiz Actif 113 / 123 40% 1 19.05.2027 -
François Kamano Sochi Actif 114 / 120 40% 2 18.05.2027 -
Amaury Morales Pumas UNAM Actif 103 / 104 40% 1 18.05.2027 -
Timur Akmurzin Dinamo Bryansk Actif 96 / 91 40% 6 15.05.2027 -
Ivan Sergeev Dinamo Moscow Actif 132 / 138 40% 1 15.05.2027 -
Lucas Carrizo Plaza Colonia Actif 101 / 112 40% 1 15.05.2027 -
Vyacheslav Grulev Nizhniy Novgorod Actif 109 / 112 40% 1 12.05.2027 -
Bogdan Ovsyannikov Orenburg Actif 104 / 107 40% 12 11.05.2027 -
Felipe San Juan Gimnasia y Esgrima Actif 110 / 104 40% 1 10.05.2027 -
Joaquín Bigo Tristán Suárez Actif 109 / 111 40% 10 08.05.2027 -
David Volk Dinamo Makhachkala Actif 100 / 112 40% 9 07.05.2027 -
Egoitz Arana Real Sociedad Actif 114 / 112 40% 1 07.05.2027 -
Rostislav Soldatenko Torpedo Moscow Actif 93 / 96 40% 10 06.05.2027 -
Franco Rivasseau Patronato Actif 109 / 113 40% 1 06.05.2027 -
Maycon Cleiton Zira Actif 115 / 114 40% 14 03.05.2027 -
Agustín Lastra Estudiantes Actif 99 / 94 40% 2 02.05.2027 -
Jayden Spier Willem II Actif 101 / 111 40% 2 02.05.2027 -
Ilja Tuseev Chelyabinsk Actif 102 / 107 40% 10 01.05.2027 -
Alejo Medina Agropecuario Argentino Actif 107 / 90 40% 2 28.04.2027 -
Ruslan Ozobic Inter Actif 104 / 107 40% 1 28.04.2027 -
Nikita Yanovich Tyumen Actif 101 / 85 40% 2 26.04.2027 -
Alexandr Degtev Orenburg Actif 117 / 99 40% 2 25.04.2027 -
Nikita Kokarev Zenit Actif 124 / 107 40% 4 24.04.2027 -
Juan Pablo Noce All Boys Actif 97 / 101 40% 2 24.04.2027 -
Gilson Benchimol Akron Actif 108 / 123 40% 2 23.04.2027 -
Thomas Amang Rubin Actif 108 / 100 40% 2 21.04.2027 -
Esteban da Silva Racing Actif 103 / 107 40% 1 21.04.2027 -
Finley McAllister Grimsby Town Actif 84 / 87 40% 3 19.04.2027 -
João Capucho Benfica Actif 94 / 99 40% 2 19.04.2027 -
Juanjo Narváez Al-Ra'ed Actif 108 / 107 40% 1 15.04.2027 -
Lorenzo Cordaro Pergolettese Actif 105 / 97 40% 2 14.04.2027 -
Rinat Shakerov Volga Actif 83 / 79 40% 2 10.04.2027 -
Nurudeen Badmos Kwara United Actif 103 / 89 40% 2 10.04.2027 -
Lucas Machado Defensor Sporting Actif 92 / 88 40% 1 08.04.2027 -
Daniel Kelly Oxford United Actif 109 / 124 40% 4 01.04.2027 -
Larson Palmeiras Actif 98 / 95 40% 3 01.04.2027 -
Lucas Ruiz Ferro Carril Oeste Actif 98 / 124 40% 1 30.03.2027 -
Matías Gómez Granada Actif 112 / 125 40% 2 28.03.2027 -
Aldo Pérez Guarani Actif 115 / 112 40% 4 26.03.2027 -
Thyago Ayala Newell's Old Boys Actif 95 / 97 40% 3 26.03.2027 -
Emanuel Sittaro Instituto Actif 100 / 117 40% 1 19.03.2027 -
Ólafur Kristófer Helgason Fylkir Actif 100 / 103 40% 2 18.03.2027 -
Zane Albarus Cambridge United Actif 95 / 90 40% 3 17.03.2027 -
Gonçalo Oliveira Benfica Actif 111 / 107 40% 2 16.03.2027 -
Karim Coulibaly RC Strasbourg Actif 127 / 127 40% 2 09.03.2027 -
Daniel Costa Sporting CP Actif 83 / 95 40% 1 04.03.2027 -
Daniil Frolkin Fakel Actif 108 / 120 40% 5 27.02.2027 -
Novak Mićović LA Galaxy Actif 106 / 111 40% 1 27.02.2027 -
Neil Volken Zurich Actif 90 / 100 40% 1 27.02.2027 -
Maxim Belov Dinamo Brest Actif 100 / 98 40% 5 21.02.2027 -
Ismail Al Suwaidi Al Fujairah Actif 123 / 137 40% 1 21.02.2027 -
Makar Vysochenko Spartak Moscow Actif 91 / 93 40% 1 03.02.2027 -
Freddy Murillo Valencia Actif 116 / 127 40% 1 03.02.2027 -
Michael Creek Nashville SC Actif 87 / 106 40% 1 01.02.2027 -
Dmitry Ivannikov Chaika Actif 76 / 79 40% 1 31.01.2027 -
Krešimir Radoš HNK Gorica Actif 101 / 115 40% 1 31.01.2027 -
Richard Noël AS Nancy Actif 88 / 103 40% 1 30.01.2027 -
Tiago Freitas Benfica Actif 107 / 121 40% 2 28.01.2027 -
Vugar Garayev Inter Actif 95 / 107 40% 5 20.01.2027 -
Teun Gijselhart Deportivo La Coruña Actif 98 / 113 40% 1 15.01.2027 -
Richard Medvedev Khazar Actif 87 / 95 40% 4 10.01.2027 -
Oleh Bilyk Epicentr Actif 107 / 104 40% 6 04.01.2027 -
Ruan Renato Zira Actif 112 / 117 65% 1 03.01.2027 Approuver
Rodrigo Frutos Olimpia Actif 87 / 80 40% 2 02.01.2027 -
Juan Sebastián Serrano FC Nordsjaelland Actif 85 / 97 40% 4 31.12.2026 -
Efraín Ustariz Botev Plovdiv Actif 96 / 94 40% 1 31.12.2026 -
Islam Imamov SKA Khabarovsk Actif 82 / 81 40% 4 28.12.2026 -
Leonardo Marson Gubbio Actif 104 / 102 40% 2 27.12.2026 -
Franco Herrera Viitorul Actif 93 / 118 40% 1 22.12.2026 -
Danila Sokol BATE Actif 91 / 86 40% 1 20.12.2026 -
Cheveyo Tsawa Club Brugge Actif 118 / 126 40% 1 13.12.2026 -
Ivan Shilenok Zenit Actif 97 / 91 40% 1 11.12.2026 -
Anton Andersson Falkenberg Actif 87 / 118 40% 3 27.11.2026 -
David Sangaré Ryazan Actif 84 / 82 40% 2 24.11.2026 -
Guilherme Pires Sporting CP Actif 85 / 98 40% 1 22.11.2026 -
Hamza Alaa Al Ahly Actif 110 / 108 40% 1 19.11.2026 -
Randall Rodríguez River Plate Actif 100 / 116 40% 2 17.11.2026 -
Reece Braithwaite Inter Actif 98 / 118 40% 1 03.11.2026 -
Frankie Westfield Philadelphia Union Actif 111 / 98 40% 1 03.11.2026 -
David Agudelo Depor Actif 107 / 101 40% 3 26.10.2026 -
Valente Pierani Estudiantes Actif 114 / 110 40% 1 11.10.2026 -
Ignacio Ovando Rosario Central Actif 115 / 121 40% 1 11.10.2026 -
Matija Mitrović Vitoria Guimaraes Actif 113 / 111 40% 1 11.10.2026 -
Joel Godoy Sarmiento Actif 114 / 124 40% 1 09.10.2026 -
Felipe Obradovich Ferro Carril Oeste Actif 114 / 116 40% 1 09.10.2026 -
Adrian Gill Atlanta United FC Actif 86 / 93 40% 1 09.10.2026 -
Joaquín Canadell Quilmes Actif 87 / 113 40% 1 01.10.2026 -
Isak Pettersson IF Elfsborg Actif 119 / 121 40% 1 27.09.2026 -
Mathías Bernatene Liverpool Montevideo Actif 110 / 110 40% 1 27.09.2026 -
Bingourou Kamara Olympique de Marseille Actif 117 / 120 40% 1 21.09.2026 -
Morrison Agyemang Charlotte Football Club Actif 101 / 110 40% 2 08.09.2026 -
Rachid Moumini Sumgayit Actif 106 / 109 40% 1 08.09.2026 -
Alfie Cresswell Leeds United Actif 100 / 113 40% 1 02.09.2026 -
Marvin Kaleta Rotherham United Actif 104 / 117 40% 2 01.09.2026 -
Jofre Torrents Ajax Actif 110 / 122 40% 1 01.09.2026 -
Santiago Espíndola River Plate Actif 109 / 96 40% 2 28.08.2026 -
Rhys Chadwick Leyton Orient Actif 100 / 104 40% 1 28.08.2026 -
Thiago Villalba Vélez Actif 93 / 116 40% 1 26.08.2026 -
Law McCabe Middlesbrough Actif 102 / 108 40% 1 24.08.2026 -
Ramiro Buratti River Plate Actif 91 / 104 40% 1 19.08.2026 -
Josh Laqeretabua Charlton Athletic Actif 94 / 102 40% 1 17.08.2026 -
Roi Kehat Sumgayit Actif 116 / 108 65% 1 10.08.2026 Approuver
Santiago Silveira Argentinos Juniors Actif 77 / 108 40% 1 10.08.2026 -
Gonzalo Escudero Racing Club Actif 116 / 126 40% 1 10.08.2026 -
Edwar López Deportes Tolima Actif 105 / 107 40% 1 01.08.2026 -